Tiempo atmosférico en la estación meteorológica de Valle de Hecho, Hecho, Huesca (855 m.)



Fecha
DESCASC
Temp. máxima en grados centígrados (hora)
DESCASC
Temp. mínima en grados centígrados (hora)
DESCASC
Temp. media en grados centígrados
DESCASC
Racha de viento máxima en m/sg (hora)
DESCASC
Velocidad máxima media en intervalos de 10 minutos(hora)
DESCASC
Precipitaciones diarias en mm
DESCASC
Precipitaciones de 00:00 a 06:00 en mm
DESCASC
Precipitaciones de 06:00 a 12:00 en mm
DESCASC
Precipitaciones de 12:00 a 18:00 en mm
DESCASC
Precipitaciones de 18:00 a 24:00 en mm
DESCASC
24-01-2021 5.6 (13:30) 0.5 (00:00) 3 10 (10:20) 6.67 (09:20) 10.2 8.6 0 1.6 0
23-01-2021 3.9 (00:50) 0.2 (22:30) 2.1 6.39 (00:10) 3.06 (00:10) 19 0 0 7.2 11.8
22-01-2021 7.5 (06:20) 2 (19:10) 4.8 18.89 (06:50) 6.11 (06:50) 25.8 4 16.6 5.2 0
21-01-2021 7.1 (13:30) 2.7 (00:00) 4.9 7.22 (23:40) 3.61 (23:40) 15.8 5 1.2 5.2 4.4
20-01-2021 7.2 (10:10) -1.3 (-00:0) 2.9 16.11 (12:20) 7.5 (10:40) 8.8 0 0 2.6 6.2
19-01-2021 13 (14:50) -4.6 (-00:0) 4.2 6.67 (15:20) 3.61 (15:10) 0 0 0 0 0
18-01-2021 11.3 (16:00) -4.1 (-00:0) 3.6 5 (15:50) 2.78 (15:40) 0 0 0 0 0
17-01-2021 10.8 (10:40) -2.1 (-00:0) 4.4 10.28 (21:10) 4.72 (22:10) 0.2 0 0 0.2 0
16-01-2021 11.8 (13:30) 0.5 (00:00) 6.2 22.5 (03:10) 8.61 (01:30) 0 0 0 0 0
15-01-2021 7.8 (12:20) 3.7 (00:00) 5.8 21.39 (23:59) 8.89 (23:30) 0 0 0 0 0
14-01-2021 10.6 (16:00) -6.2 (09:20) 2.2 16.39 (23:20) 6.11 (14:30) 0 0 0 0 0
13-01-2021 10.3 (15:20) -2.9 (-00:0) 3.7 19.17 (03:50) 6.94 (03:50) 0 0 0 0 0
12-01-2021 6.2 (16:00) -10.2 (-00:0) -2 14.44 (23:20) 6.67 (23:40) 0 0 0 0 0
11-01-2021 5.4 (12:40) -8.9 (-00:0) -1.7 15.83 (19:40) 7.5 (14:10) 0 0 0 0 0
10-01-2021 4.1 (14:30) -6.5 (23:59) -1.2 6.39 (08:20) 2.5 (07:50) 0.6 0.2 0 0.4 0
09-01-2021 -1.5 (13:00) -3.8 (-00:0) -2.6 3.33 (14:30) 1.67 (14:30) 7.8 0 1.8 5.2 0.8
08-01-2021 1.6 (15:10) -13.9 (-00:0) -6.1 2.78 (15:30) 1.39 (18:00) 0 0 0 0 0
07-01-2021 0.6 (15:10) -10.6 (-00:0) -5 2.22 (17:30) 1.39 (17:30) 0 0 0 0 0
06-01-2021 3.9 (14:50) -10.6 (-00:0) -3.4 3.33 (16:10) 1.94 (16:10) 0 0 0 0 0
05-01-2021 2.2 (12:40) -7.4 (-00:0) -2.6 10.28 (14:40) 7.22 (14:40) 0 0 0 0 0
04-01-2021 0.7 (15:10) -3.3 (-00:0) -1.3 3.61 (15:30) 1.67 (15:40) 6 0 3.2 1.8 1
03-01-2021 5.5 (12:50) -1.4 (-00:0) 2.1 18.06 (02:40) 8.33 (00:20) 0.8 0 0 0 0.8
02-01-2021 1.9 (10:30) -4 (-00:0) -1.1 16.94 (13:30) 7.22 (20:20) 0 0 0 0 0
01-01-2021 3.2 (14:30) -2.6 (-00:0) 0.3 8.61 (16:00) 5.28 (15:00) 0.4 0 0 0 0.4
31-12-2020 2.5 (12:20) 0 (00:00) 1.3 2.5 (11:10) 1.11 (11:10) 5.2 0.2 0.4 1.8 2.8
30-12-2020 2.9 (13:40) -0.1 (00:00) 1.4 8.89 (15:50) 5.83 (15:50) 14 8.6 4.6 0.6 0.2
29-12-2020 2 (13:20) 0.1 (00:00) 1.1 5.83 (17:40) 3.33 (17:50) 8.4 3.2 1 1 3.2
28-12-2020 1.1 (11:20) 0.1 (00:00) 0.6 3.89 (06:10) 1.39 (06:10) 34.6 13 5 11.4 5.2
27-12-2020 3.6 (21:20) -5.8 (-00:0) -1.1 8.33 (21:30) 3.89 (21:40) 2 0 0 0 2
26-12-2020 4.6 (19:10) -4.2 (-00:0) 0.2 21.67 (06:50) 8.33 (02:00) 0 0 0 0 0

Gráficas

Temp. máximas Temp. mínimas Temp. medias Precipitaciones Rachas de viento máximas Velocidades máximas media en intervalos de 10 minutos

Datos horarios

Fecha y hora oficial Temperatura (ºC) Velocidad del viento (km/h) Dirección del viento Racha (km/h) Dirección de racha Precipitación (mm) Presión (hPa) Tendencia (hPa) Humedad (%)
2021-01-24 23:00:00 3.2 0 Calma 7 Sur 0 -- -- 96
2021-01-24 22:00:00 2.9 0 Calma 5 Sudoeste 0 -- -- 95
2021-01-24 21:00:00 2.9 4 Sur 8 Sudoeste 0 -- -- 94
2021-01-24 20:00:00 3.2 0 Calma 10 Oeste 0 -- -- 92
2021-01-24 19:00:00 3.4 0 Calma 4 Sur 0 -- -- 91
2021-01-24 18:00:00 4.8 3 Nordeste 13 Norte 0 -- -- 82
2021-01-24 17:00:00 4.9 7 Norte 17 Noroeste 0 -- -- 82
2021-01-24 16:00:00 4.4 2 Nordeste 16 Oeste 0.8 -- -- 88
2021-01-24 15:00:00 4.4 9 Oeste 23 Oeste 0.8 -- -- 88
2021-01-24 14:00:00 4.7 15 Oeste 30 Sudoeste 0 -- -- 83
2021-01-24 13:00:00 4.8 17 Oeste 28 Noroeste 0 -- -- 86
2021-01-24 12:00:00 4.4 16 Oeste 27 Noroeste 0 -- -- 85
2021-01-24 11:00:00 4.4 16 Oeste 36 Oeste 0 -- -- 81
2021-01-24 10:00:00 3.5 23 Noroeste 33 Oeste 0 -- -- 84
2021-01-24 09:00:00 2.4 23 Noroeste 33 Noroeste 0 -- -- 86
2021-01-24 08:00:00 3 12 Noroeste 22 Noroeste 0 -- -- 79
2021-01-24 07:00:00 3.5 11 Noroeste 28 Nordeste 0 -- -- 75
2021-01-24 06:00:00 3.8 10 Noroeste 35 Noroeste 0 -- -- 81
2021-01-24 05:00:00 4.2 14 Noroeste 29 Noroeste 0.2 -- -- 95
2021-01-24 04:00:00 1.5 3 Norte 17 Oeste 1.6 -- -- 97
2021-01-24 03:00:00 1 3 Norte 9 Nordeste 4 -- -- 97
2021-01-24 02:00:00 0.8 0 Calma 10 Noroeste 1 -- -- 97
2021-01-24 01:00:00 0.6 0 Calma 6 Nordeste 1.8 -- -- 97
2021-01-24 00:00:00 0.5 2 Noroeste 4 Oeste 1.6 -- -- 97
2021-01-23 23:00:00 0.2 0 Calma 6 Este 1.8 -- -- 97
2021-01-23 22:00:00 0.4 2 Norte 5 Norte 3.4 -- -- 97
2021-01-23 21:00:00 0.4 0 Calma 3 Oeste 2.2 -- -- 96
2021-01-23 20:00:00 0.4 2 Nordeste 5 Noroeste 1.6 -- -- 96
2021-01-23 19:00:00 0.4 0 Calma 5 Nordeste 1.2 -- -- 96
2021-01-23 18:00:00 0.5 0 Calma 6 Nordeste 3 -- -- 95
2021-01-23 17:00:00 1.2 2 Sur 8 Oeste 1.4 -- -- 94
2021-01-23 16:00:00 1.9 3 Sudoeste 15 Oeste 0.8 -- -- 93
2021-01-23 15:00:00 2.6 7 Sudoeste 13 Sudoeste 1.6 -- -- 92
2021-01-23 14:00:00 3 0 Calma 4 Oeste 0.4 -- -- 91
2021-01-23 13:00:00 3 0 Calma 6 Noroeste 0 -- -- 90
2021-01-23 12:00:00 2.7 4 Norte 10 Oeste 0 -- -- 90
2021-01-23 11:00:00 2.3 3 Oeste 5 Noroeste 0 -- -- 92
2021-01-23 10:00:00 2.2 0 Calma 8 Sudoeste 0 -- -- 93
2021-01-23 09:00:00 2.2 3 Sudoeste 6 Sur 0 -- -- 91
2021-01-23 08:00:00 2.7 6 Noroeste 16 Noroeste 0 -- -- 87
2021-01-23 07:00:00 1.8 3 Sudoeste 7 Este 0 -- -- 92
2021-01-23 06:00:00 1.8 3 Sudoeste 6 Noroeste 0 -- -- 92
2021-01-23 05:00:00 2 2 Norte 6 Sudoeste 0 -- -- 89
2021-01-23 04:00:00 1.7 0 Calma 9 Noroeste 0 -- -- 89
2021-01-23 03:00:00 2.2 3 Noroeste 9 Noroeste 0 -- -- 84
2021-01-23 02:00:00 3.1 3 Oeste 19 Noroeste 0 -- -- 77
2021-01-23 01:00:00 3.9 7 Noroeste 23 Noroeste 0 -- -- 68
2021-01-23 00:00:00 3.4 12 Noroeste 24 Noroeste 0 -- -- 70
2021-01-22 23:00:00 3 9 Noroeste 21 Noroeste 0 -- -- 78
2021-01-22 22:00:00 2.6 6 Noroeste 25 Noroeste 0 -- -- 83
2021-01-22 21:00:00 2.2 11 Oeste 20 Oeste 0 -- -- 85
2021-01-22 20:00:00 2.1 12 Oeste 24 Oeste 0 -- -- 86
2021-01-22 19:00:00 2.2 15 Oeste 25 Oeste 0 -- -- 82
2021-01-22 18:00:00 3 11 Noroeste 26 Noroeste 0 -- -- 76
2021-01-22 17:00:00 3.3 12 Oeste 37 Noroeste 0.2 -- -- 80
2021-01-22 16:00:00 4.9 15 Noroeste 29 Oeste 0 -- -- 75
2021-01-22 15:00:00 3.3 15 Oeste 28 Noroeste 1.8 -- -- 92
2021-01-22 14:00:00 3.6 15 Oeste 26 Oeste 0.8 -- -- 91
2021-01-22 13:00:00 2.7 8 Oeste 15 Noroeste 2.4 -- -- 91
2021-01-22 12:00:00 2.8 3 Oeste 9 Oeste 2.4 -- -- 91
2021-01-22 11:00:00 3.3 7 Oeste 17 Sudoeste 3.2 -- -- 89
2021-01-22 10:00:00 4.4 5 Sudoeste 14 Sudoeste 0 -- -- 86
2021-01-22 09:00:00 4.4 3 Sudoeste 13 Noroeste 0 -- -- 88
2021-01-22 08:00:00 4 5 Este 23 Noroeste 2 -- -- 89
2021-01-22 07:00:00 5.1 8 Este 68 Sudoeste 9 -- -- 87
2021-01-22 06:00:00 7.1 10 Sudoeste 24 Sudoeste 2.8 -- -- 92
2021-01-22 05:00:00 7 9 Sudoeste 22 Sudoeste 0.2 -- -- 90
2021-01-22 04:00:00 7.2 8 Sudoeste 22 Sudoeste 0 -- -- 90
2021-01-22 03:00:00 6.9 4 Sudoeste 18 Sudoeste 0.2 -- -- 92
2021-01-22 02:00:00 7 6 Sudoeste 21 Sudoeste 0.8 -- -- 92
2021-01-22 01:00:00 6.8 11 Sudoeste 26 Sudoeste 0 -- -- 91
2021-01-22 00:00:00 6.5 10 Sudoeste 26 Sudoeste 0 -- -- 95
2021-01-21 23:00:00 5.1 2 Nordeste 8 Sudoeste 0 -- -- 97
2021-01-21 22:00:00 5.1 3 Norte 10 Oeste 0 -- -- 96
2021-01-21 21:00:00 5.1 6 Sudoeste 11 Sudeste 1 -- -- 96
2021-01-21 20:00:00 5.2 2 Sudeste 8 Sudoeste 2 -- -- 95
2021-01-21 19:00:00 5.4 4 Nordeste 13 Sur 1.4 -- -- 95
2021-01-21 18:00:00 5.5 3 Nordeste 13 Sudoeste 1.2 -- -- 94
2021-01-21 17:00:00 5.7 4 Oeste 15 Oeste 0.2 -- -- 93
2021-01-21 16:00:00 6 3 Sudoeste 17 Noroeste 2.8 -- -- 92
2021-01-21 15:00:00 6.2 4 Sudoeste 17 Sudoeste 0.8 -- -- 90
2021-01-21 14:00:00 7 4 Sur 16 Sudeste 0.2 -- -- 85
2021-01-21 13:00:00 6.8 8 Sudoeste 18 Sur 0 -- -- 91
2021-01-21 12:00:00 6.3 5 Sur 17 Sudoeste 0 -- -- 97
2021-01-21 11:00:00 4.8 3 Oeste 9 Noroeste 0 -- -- 97
2021-01-21 10:00:00 3.2 2 Nordeste 8 Noroeste 0.4 -- -- 97
2021-01-21 09:00:00 3 3 Oeste 6 Oeste 0.2 -- -- 97
2021-01-21 08:00:00 2.8 0 Calma 10 Noroeste 0.4 -- -- 96
2021-01-21 07:00:00 2.7 0 Calma 4 Noroeste 0.2 -- -- 96
2021-01-21 06:00:00 2.7 2 Nordeste 6 Oeste 0.6 -- -- 96
2021-01-21 05:00:00 2.8 2 Norte 5 Este 0.4 -- -- 96
2021-01-21 04:00:00 3 0 Calma 4 Sudoeste 1.2 -- -- 95
2021-01-21 03:00:00 3.1 2 Sudoeste 5 Nordeste 0.8 -- -- 95
2021-01-21 02:00:00 3.2 0 Calma 4 Norte 1.6 -- -- 95
2021-01-21 01:00:00 3.4 3 Sudoeste 7 Norte 0.4 -- -- 94
2021-01-21 00:00:00 3.4 0 Calma 6 Sudoeste 1.8 -- -- 93
2021-01-20 23:00:00 3.6 3 Oeste 14 Sudoeste 1.4 -- -- 92
2021-01-20 22:00:00 3.7 3 Nordeste 18 Sudoeste 0 -- -- 89
2021-01-20 21:00:00 3.8 8 Sudoeste 20 Sudeste 0.2 -- -- 89
2021-01-20 20:00:00 4.4 10 Sudeste 29 Sudeste 1.8 -- -- 84
2021-01-20 19:00:00 5.2 11 Sudeste 22 Sudeste 1 -- -- 82
2021-01-20 18:00:00 5.6 7 Sudeste 22 Sudeste 0.2 -- -- 79
2021-01-20 17:00:00 5.8 8 Sur 28 Sur 0 -- -- 74
2021-01-20 16:00:00 5.5 13 Sur 30 Sudeste 0 -- -- 75
2021-01-20 15:00:00 5 16 Sudeste 39 Sudeste 0 -- -- 76
2021-01-20 14:00:00 3.7 14 Sudeste 36 Sur 1.6 -- -- 83
2021-01-20 13:00:00 4.6 14 Sudeste 58 Sudoeste 0.8 -- -- 76
2021-01-20 12:00:00 6.6 19 Sur 41 Sur 0 -- -- 57
2021-01-20 11:00:00 6.7 22 Sur 48 Sudoeste 0 -- -- 55
2021-01-20 10:00:00 7.1 22 Sudoeste 39 Sudoeste 0 -- -- 44
2021-01-20 09:00:00 6.4 13 Sur 29 Sur 0 -- -- 42
2021-01-20 08:00:00 4.3 6 Sudeste 25 Sur 0 -- -- 51
2021-01-20 07:00:00 2 2 Sudeste 19 Sudoeste 0 -- -- 62
2021-01-20 06:00:00 0.9 3 Nordeste 9 Nordeste 0 -- -- 68
2021-01-20 05:00:00 0.3 2 Norte 12 Sudeste 0 -- -- 74
2021-01-20 04:00:00 -0.3 3 Norte 6 Noroeste 0 -- -- 78
2021-01-20 03:00:00 -0.4 0 Calma 8 Sudoeste 0 -- -- 80
2021-01-20 02:00:00 -0.1 0 Calma 10 Nordeste 0 -- -- 81
2021-01-20 01:00:00 -0.8 0 Calma 5 Noroeste 0 -- -- 86
2021-01-20 00:00:00 -1.1 0 Calma 5 Noroeste 0 -- -- 86
2021-01-19 23:00:00 -1.5 2 Oeste 5 Sudoeste 0 -- -- 86
2021-01-19 22:00:00 -0.8 3 Oeste 6 Noroeste 0 -- -- 83
2021-01-19 21:00:00 -0.2 0 Calma 4 Nordeste 0 -- -- 79
2021-01-19 20:00:00 1.5 0 Calma 5 Nordeste 0 -- -- 73
2021-01-19 19:00:00 3.5 0 Calma 3 Oeste 0 -- -- 64
2021-01-19 18:00:00 6.5 0 Calma 6 Nordeste 0 -- -- 53
2021-01-19 17:00:00 10.6 6 Sudoeste 17 Sudoeste 0 -- -- 39
2021-01-19 16:00:00 12.6 10 Sudoeste 24 Sudoeste 0 -- -- 38
2021-01-19 15:00:00 12.9 12 Sudoeste 22 Sudoeste 0 -- -- 36
2021-01-19 14:00:00 12.3 11 Sudoeste 19 Sudoeste 0 -- -- 40
2021-01-19 13:00:00 8.7 0 Calma 4 Este 0 -- -- 54
2021-01-19 12:00:00 4.8 0 Calma 4 Nordeste 0 -- -- 68
2021-01-19 11:00:00 1.2 0 Calma 3 Este 0 -- -- 81
2021-01-19 10:00:00 -2 0 Calma 2 Sudoeste 0 -- -- 91
2021-01-19 09:00:00 -4.6 0 Calma 0 Calma 0 -- -- 92
2021-01-19 08:00:00 -4.5 0 Calma 2 Oeste 0 -- -- 92
2021-01-19 07:00:00 -4.3 0 Calma 2 Sur 0 -- -- 93
2021-01-19 06:00:00 -4.1 0 Calma 2 Noroeste 0 -- -- 92
2021-01-19 05:00:00 -3.8 0 Calma 2 Oeste 0 -- -- 91
2021-01-19 04:00:00 -3.2 2 Oeste 2 Oeste 0 -- -- 93
2021-01-19 03:00:00 -3.2 0 Calma 2 Noroeste 0 -- -- 92
2021-01-19 02:00:00 -2.9 0 Calma 2 Oeste 0 -- -- 91
2021-01-19 01:00:00 -2.4 0 Calma 5 Norte 0 -- -- 92
2021-01-19 00:00:00 -2.3 0 Calma 3 Oeste 0 -- -- 90
2021-01-18 23:00:00 -1.6 0 Calma 2 Noroeste 0 -- -- 89
2021-01-18 22:00:00 -1 2 Norte 5 Nordeste 0 -- -- 86
2021-01-18 21:00:00 0.4 0 Calma 2 Sudoeste 0 -- -- 84
2021-01-18 20:00:00 1.9 0 Calma 3 Nordeste 0 -- -- 77
2021-01-18 19:00:00 3.8 0 Calma 5 Nordeste 0 -- -- 70
2021-01-18 18:00:00 6.6 2 Nordeste 12 Sudoeste 0 -- -- 61
2021-01-18 17:00:00 9.1 6 Sudoeste 13 Sudoeste 0 -- -- 53
2021-01-18 16:00:00 11.3 6 Sudoeste 18 Sudoeste 0 -- -- 47
2021-01-18 15:00:00 10.8 6 Sur 10 Sudoeste 0 -- -- 42
2021-01-18 14:00:00 10.2 5 Sur 9 Sur 0 -- -- 38
2021-01-18 13:00:00 8.2 2 Sur 5 Sudoeste 0 -- -- 36
2021-01-18 12:00:00 4 3 Este 8 Este 0 -- -- 47
2021-01-18 11:00:00 1.1 0 Calma 5 Nordeste 0 -- -- 67
2021-01-18 10:00:00 -2.1 0 Calma 4 Oeste 0 -- -- 82
2021-01-18 09:00:00 -4 0 Calma 4 Este 0 -- -- 81
2021-01-18 08:00:00 -4.1 2 Nordeste 6 Sudoeste 0 -- -- 84
2021-01-18 07:00:00 -3.5 2 Sudoeste 8 Sudoeste 0 -- -- 84
2021-01-18 06:00:00 -3.2 2 Oeste 6 Norte 0 -- -- 81
2021-01-18 05:00:00 -3.1 2 Norte 7 Noroeste 0 -- -- 80
2021-01-18 04:00:00 -2.2 0 Calma 4 Sudoeste 0 -- -- 73
2021-01-18 03:00:00 -1.1 0 Calma 6 Oeste 0 -- -- 67
2021-01-18 02:00:00 0.3 2 Sudoeste 8 Sudoeste 0 -- -- 62
2021-01-18 01:00:00 1.8 0 Calma 11 Sur 0 -- -- 60
2021-01-18 00:00:00 7.6 4 Nordeste 23 Noroeste 0 -- -- 19
2021-01-17 23:00:00 8.1 15 Noroeste 35 Noroeste 0 -- -- 18
2021-01-17 22:00:00 7.6 15 Norte 37 Nordeste 0 -- -- 45
2021-01-17 21:00:00 7.7 14 Norte 33 Nordeste 0 -- -- 53
2021-01-17 20:00:00 8.3 13 Norte 32 Norte 0 -- -- 63
2021-01-17 19:00:00 8.6 14 Norte 32 Nordeste 0 -- -- 65
2021-01-17 18:00:00 9 12 Norte 32 Norte 0 -- -- 67
2021-01-17 17:00:00 9.6 12 Norte 30 Norte 0 -- -- 66
2021-01-17 16:00:00 9.9 10 Norte 27 Norte 0 -- -- 65
2021-01-17 15:00:00 10.1 8 Nordeste 16 Nordeste 0 -- -- 68
2021-01-17 14:00:00 9.6 6 Norte 24 Oeste 0.2 -- -- 75
2021-01-17 13:00:00 8.5 17 Noroeste 26 Oeste 0 -- -- 81
2021-01-17 12:00:00 8.9 15 Noroeste 26 Noroeste 0 -- -- 75
2021-01-17 11:00:00 10.3 9 Noroeste 28 Noroeste 0 -- -- 63
2021-01-17 10:00:00 8.8 7 Noroeste 16 Norte 0 -- -- 69
2021-01-17 09:00:00 8.3 7 Noroeste 20 Nordeste 0 -- -- 72
2021-01-17 08:00:00 2.9 5 Norte 20 Noroeste 0 -- -- 86
2021-01-17 07:00:00 -0.7 3 Sudoeste 11 Nordeste 0 -- -- 81
2021-01-17 06:00:00 -2 2 Oeste 7 Oeste 0 -- -- 82
2021-01-17 05:00:00 -1.9 0 Calma 7 Noroeste 0 -- -- 80
2021-01-17 04:00:00 -1.8 0 Calma 5 Oeste 0 -- -- 78
2021-01-17 03:00:00 -1.7 0 Calma 5 Nordeste 0 -- -- 75
2021-01-17 02:00:00 -1.2 0 Calma 8 Norte 0 -- -- 72
2021-01-17 01:00:00 -0.2 0 Calma 4 Oeste 0 -- -- 65
2021-01-17 00:00:00 1.1 0 Calma 7 Sur 0 -- -- 57
2021-01-16 23:00:00 2 2 Sudoeste 13 Sur 0 -- -- 53
2021-01-16 22:00:00 5 4 Sudoeste 22 Oeste 0 -- -- 42
2021-01-16 21:00:00 7.2 5 Norte 25 Norte 0 -- -- 34
2021-01-16 20:00:00 9.1 10 Norte 28 Noroeste 0 -- -- 26
2021-01-16 19:00:00 9.1 8 Noroeste 26 Nordeste 0 -- -- 26
2021-01-16 18:00:00 9.9 11 Norte 30 Norte 0 -- -- 23
2021-01-16 17:00:00 10.4 12 Norte 38 Nordeste 0 -- -- 21
2021-01-16 16:00:00 11 22 Nordeste 37 Nordeste 0 -- -- 19
2021-01-16 15:00:00 11.6 13 Nordeste 44 Nordeste 0 -- -- 19
2021-01-16 14:00:00 11.7 13 Norte 38 Norte 0 -- -- 18
2021-01-16 13:00:00 11.2 18 Norte 42 Norte 0 -- -- 17
2021-01-16 12:00:00 6.4 11 Sudoeste 26 Sudoeste 0 -- -- 44
2021-01-16 11:00:00 4.5 10 Sudoeste 24 Sudoeste 0 -- -- 49
2021-01-16 10:00:00 2.2 12 Sudoeste 25 Sur 0 -- -- 54
2021-01-16 09:00:00 1 12 Sur 27 Sudoeste 0 -- -- 56
2021-01-16 08:00:00 2.7 3 Sudeste 20 Sudeste 0 -- -- 45
2021-01-16 07:00:00 5.9 9 Este 37 Nordeste 0 -- -- 27
2021-01-16 06:00:00 6 16 Norte 47 Nordeste 0 -- -- 20
2021-01-16 05:00:00 6.3 19 Norte 60 Nordeste 0 -- -- 21
2021-01-16 04:00:00 5.6 24 Norte 81 Norte 0 -- -- 28
2021-01-16 03:00:00 5 30 Norte 71 Norte 0 -- -- 37
2021-01-16 02:00:00 3.9 25 Norte 66 Nordeste 0 -- -- 55
2021-01-16 01:00:00 4.2 27 Norte 64 Nordeste 0 -- -- 53
2021-01-16 00:00:00 4.3 26 Norte 77 Nordeste 0 -- -- 55
2021-01-15 23:00:00 4.3 30 Norte 75 Nordeste 0 -- -- 54
2021-01-15 22:00:00 4.2 26 Norte 65 Nordeste 0 -- -- 54
2021-01-15 21:00:00 4 25 Norte 69 Nordeste 0 -- -- 53
2021-01-15 20:00:00 4.5 26 Norte 64 Nordeste 0 -- -- 56
2021-01-15 19:00:00 4.6 24 Norte 61 Nordeste 0 -- -- 55
2021-01-15 18:00:00 5 21 Norte 61 Norte 0 -- -- 56
2021-01-15 17:00:00 5.2 25 Norte 57 Norte 0 -- -- 55
2021-01-15 16:00:00 6.2 18 Norte 49 Norte 0 -- -- 53
2021-01-15 15:00:00 7.1 22 Norte 49 Norte 0 -- -- 54
2021-01-15 14:00:00 6.7 18 Norte 43 Norte 0 -- -- 60
2021-01-15 13:00:00 7 21 Nordeste 42 Nordeste 0 -- -- 55
2021-01-15 12:00:00 7.4 18 Norte 39 Norte 0 -- -- 55
2021-01-15 11:00:00 7.5 7 Oeste 40 Norte 0 -- -- 55
2021-01-15 10:00:00 6.3 13 Norte 35 Nordeste 0 -- -- 62
2021-01-15 09:00:00 5.2 9 Noroeste 51 Noroeste 0 -- -- 66
2021-01-15 08:00:00 5.7 19 Norte 53 Norte 0 -- -- 57
2021-01-15 07:00:00 5.8 21 Norte 53 Norte 0 -- -- 59
2021-01-15 06:00:00 5.8 16 Noroeste 46 Norte 0 -- -- 61
2021-01-15 05:00:00 6.2 19 Norte 44 Noroeste 0 -- -- 56
2021-01-15 04:00:00 5.9 15 Noroeste 45 Norte 0 -- -- 63
2021-01-15 03:00:00 6 14 Norte 47 Nordeste 0 -- -- 60
2021-01-15 02:00:00 5.8 16 Norte 45 Norte 0 -- -- 57
2021-01-15 01:00:00 6 18 Noroeste 46 Este 0 -- -- 53
2021-01-15 00:00:00 6.3 16 Noroeste 59 Norte 0 -- -- 65
2021-01-14 23:00:00 6.6 12 Norte 33 Noroeste 0 -- -- 65
2021-01-14 22:00:00 6.8 10 Noroeste 31 Noroeste 0 -- -- 59
2021-01-14 21:00:00 6.8 13 Noroeste 36 Noroeste 0 -- -- 71
2021-01-14 20:00:00 6.9 18 Oeste 36 Norte 0 -- -- 73
2021-01-14 19:00:00 7.2 13 Noroeste 34 Noroeste 0 -- -- 70
2021-01-14 18:00:00 8 11 Noroeste 35 Norte 0 -- -- 63
2021-01-14 17:00:00 8.7 18 Norte 47 Norte 0 -- -- 54
2021-01-14 16:00:00 10.6 14 Norte 30 Norte 0 -- -- 32
2021-01-14 15:00:00 10.1 15 Oeste 38 Noroeste 0 -- -- 46
2021-01-14 14:00:00 10.1 10 Oeste 28 Oeste 0 -- -- 48
2021-01-14 13:00:00 6.6 8 Sur 21 Sudoeste 0 -- -- 66
2021-01-14 12:00:00 3 5 Sur 13 Sudoeste 0 -- -- 77
2021-01-14 11:00:00 -0.4 2 Sudeste 6 Este 0 -- -- 82
2021-01-14 10:00:00 -3.3 0 Calma 4 Noroeste 0 -- -- 96
2021-01-14 09:00:00 -6.1 0 Calma 4 Oeste 0 -- -- 94
2021-01-14 08:00:00 -5.8 0 Calma 6 Oeste 0 -- -- 94
2021-01-14 07:00:00 -5.5 0 Calma 5 Sudoeste 0 -- -- 94
2021-01-14 06:00:00 -4.8 2 Noroeste 6 Oeste 0 -- -- 95
2021-01-14 05:00:00 -4.1 2 Oeste 6 Noroeste 0 -- -- 95
2021-01-14 04:00:00 -3.3 3 Oeste 7 Oeste 0 -- -- 95
2021-01-14 03:00:00 -3.2 4 Sur 9 Sudoeste 0 -- -- 95
2021-01-14 02:00:00 -3 4 Sudoeste 12 Sudoeste 0 -- -- 95
2021-01-14 01:00:00 -2.9 2 Sudoeste 11 Sudoeste 0 -- -- 95
2021-01-14 00:00:00 -2.7 3 Sudoeste 15 Sudoeste 0 -- -- 95
2021-01-13 23:00:00 -2.3 4 Sudoeste 13 Sudoeste 0 -- -- 94
2021-01-13 22:00:00 -1.6 2 Noroeste 11 Sudoeste 0 -- -- 93
2021-01-13 21:00:00 -1.1 3 Sudoeste 8 Sur 0 -- -- 91
2021-01-13 20:00:00 -0.1 0 Calma 5 Sudoeste 0 -- -- 87
2021-01-13 19:00:00 2.2 2 Sudoeste 6 Norte 0 -- -- 81
2021-01-13 18:00:00 4.3 3 Noroeste 14 Sudoeste 0 -- -- 72
2021-01-13 17:00:00 6.8 5 Sudoeste 25 Sudoeste 0 -- -- 63
2021-01-13 16:00:00 9.7 8 Sudoeste 18 Sudoeste 0 -- -- 53
2021-01-13 15:00:00 10.1 5 Sur 19 Sur 0 -- -- 54
2021-01-13 14:00:00 9.4 9 Sudoeste 22 Sudoeste 0 -- -- 57
2021-01-13 13:00:00 8 10 Sudoeste 28 Sudoeste 0 -- -- 61
2021-01-13 12:00:00 7.9 7 Sudoeste 29 Sur 0 -- -- 59
2021-01-13 11:00:00 6.6 5 Este 36 Este 0 -- -- 59
2021-01-13 10:00:00 6.2 12 Norte 37 Nordeste 0 -- -- 61
2021-01-13 09:00:00 4.4 8 Nordeste 45 Nordeste 0 -- -- 64
2021-01-13 08:00:00 4.8 15 Noroeste 49 Norte 0 -- -- 64
2021-01-13 07:00:00 5.9 17 Nordeste 59 Nordeste 0 -- -- 59
2021-01-13 06:00:00 6.3 22 Norte 54 Nordeste 0 -- -- 56
2021-01-13 05:00:00 6.1 22 Norte 54 Nordeste 0 -- -- 60
2021-01-13 04:00:00 5.6 19 Norte 69 Norte 0 -- -- 62
2021-01-13 03:00:00 6 16 Norte 53 Nordeste 0 -- -- 60
2021-01-13 02:00:00 6.1 17 Noroeste 54 Nordeste 0 -- -- 57
2021-01-13 01:00:00 6.1 22 Norte 53 Noroeste 0 -- -- 58
2021-01-13 00:00:00 5.9 22 Noroeste 52 Norte 0 -- -- 58
2021-01-12 23:00:00 5.6 23 Noroeste 48 Nordeste 0 -- -- 59
2021-01-12 22:00:00 5.2 15 Norte 45 Nordeste 0 -- -- 60
2021-01-12 21:00:00 5.8 15 Norte 44 Noroeste 0 -- -- 58
2021-01-12 20:00:00 5.1 18 Noroeste 47 Norte 0 -- -- 60
2021-01-12 19:00:00 4.3 21 Noroeste 44 Noroeste 0 -- -- 51
2021-01-12 18:00:00 2.9 5 Norte 27 Noroeste 0 -- -- 62
2021-01-12 17:00:00 4.2 6 Noroeste 24 Oeste 0 -- -- 62
2021-01-12 16:00:00 6.2 7 Noroeste 31 Oeste 0 -- -- 55
2021-01-12 15:00:00 5 13 Sudoeste 21 Sudoeste 0 -- -- 58
2021-01-12 14:00:00 5 10 Sudoeste 20 Sudoeste 0 -- -- 56
2021-01-12 13:00:00 4.1 7 Sur 17 Sudoeste 0 -- -- 55
2021-01-12 12:00:00 0.5 10 Sur 18 Sudoeste 0 -- -- 62
2021-01-12 11:00:00 -3 3 Sudoeste 8 Sudoeste 0 -- -- 67
2021-01-12 10:00:00 -6.8 2 Norte 9 Nordeste 0 -- -- 77
2021-01-12 09:00:00 -10.2 3 Nordeste 9 Noroeste 0 -- -- 87
2021-01-12 08:00:00 -9.4 3 Oeste 9 Sudoeste 0 -- -- 89
2021-01-12 07:00:00 -9.1 0 Calma 6 Nordeste 0 -- -- 86
2021-01-12 06:00:00 -8.4 2 Sudoeste 4 Noroeste 0 -- -- 86
2021-01-12 05:00:00 -8.1 0 Calma 6 Sudoeste 0 -- -- 84
2021-01-12 04:00:00 -7.4 0 Calma 8 Sudoeste 0 -- -- 81
2021-01-12 03:00:00 -6.7 3 Sudoeste 8 Noroeste 0 -- -- 77
2021-01-12 02:00:00 -5.4 3 Oeste 16 Sudoeste 0 -- -- 68
2021-01-12 01:00:00 -3.8 7 Sudoeste 31 Noroeste 0 -- -- 59
2021-01-12 00:00:00 3.4 20 Norte 42 Norte 0 -- -- 20
2021-01-11 23:00:00 2.3 19 Norte 51 Noroeste 0 -- -- 21
2021-01-11 22:00:00 2 24 Noroeste 40 Noroeste 0 -- -- 24
2021-01-11 21:00:00 1.6 17 Nordeste 48 Norte 0 -- -- 24
2021-01-11 20:00:00 2 17 Norte 57 Nordeste 0 -- -- 24
2021-01-11 19:00:00 2.4 18 Norte 50 Norte 0 -- -- 22
2021-01-11 18:00:00 2.7 18 Norte 49 Norte 0 -- -- 22
2021-01-11 17:00:00 3 21 Norte 54 Nordeste 0 -- -- 21
2021-01-11 16:00:00 3.7 19 Norte 51 Nordeste 0 -- -- 22
2021-01-11 15:00:00 3.9 21 Norte 53 Nordeste 0 -- -- 23
2021-01-11 14:00:00 4.5 25 Norte 49 Nordeste 0 -- -- 23
2021-01-11 13:00:00 5.2 17 Norte 47 Nordeste 0 -- -- 21
2021-01-11 12:00:00 5.2 15 Nordeste 45 Norte 0 -- -- 21
2021-01-11 11:00:00 4 19 Nordeste 41 Nordeste 0 -- -- 25
2021-01-11 10:00:00 -4.7 0 Calma -- -- 0 -- -- 72
2021-01-11 09:00:00 -7.8 0 Calma -- -- 0 -- -- 83
2021-01-11 08:00:00 -8.6 0 Calma -- -- 0 -- -- 90
2021-01-11 07:00:00 -8 0 Calma -- -- 0 -- -- 89
2021-01-11 06:00:00 -6.1 0 Calma -- -- 0 -- -- 77
2021-01-11 05:00:00 -5.9 0 Calma -- -- 0 -- -- 76
2021-01-11 04:00:00 -7 0 Calma -- -- 0 -- -- 87
2021-01-11 03:00:00 -7.8 0 Calma -- -- 0 -- -- 93
2021-01-11 02:00:00 -7.2 0 Calma -- -- 0 -- -- 93
2021-01-11 01:00:00 -7.1 0 Calma -- -- 0 -- -- 93
2021-01-11 00:00:00 -6.5 0 Calma -- -- 0 -- -- 90
2021-01-10 23:00:00 -5.4 0 Calma -- -- 0 -- -- 88
2021-01-10 22:00:00 -4.3 0 Calma -- -- 0 -- -- 87
2021-01-10 21:00:00 -3.2 0 Calma -- -- 0 -- -- 88
2021-01-10 20:00:00 -2.3 0 Calma -- -- 0 -- -- 90
2021-01-10 19:00:00 -1.5 0 Calma 11 Norte 0 -- -- 91
2021-01-10 18:00:00 -0.3 3 Sur 15 Sudoeste 0 -- -- 88
2021-01-10 17:00:00 1.1 9 Sudoeste 18 Sudoeste 0 -- -- 85
2021-01-10 16:00:00 3.2 6 Sudoeste 18 Sudoeste 0 -- -- 78
2021-01-10 15:00:00 3.4 5 Sudoeste 15 Sudoeste 0 -- -- 79
2021-01-10 14:00:00 2.9 6 Sudoeste 12 Sudoeste 0 -- -- 78
2021-01-10 13:00:00 1.5 4 Sudoeste 12 Sudoeste 0.4 -- -- 82
2021-01-10 12:00:00 0.3 0 Calma 3 Sur 0 -- -- 85
2021-01-10 11:00:00 -1.4 0 Calma 6 Sur 0 -- -- 90
2021-01-10 10:00:00 -2.4 0 Calma 13 Sudoeste 0 -- -- 92
2021-01-10 09:00:00 -2.8 6 Sudoeste 23 Sur 0 -- -- 94
2021-01-10 08:00:00 -2.7 7 Sudoeste 19 Sudoeste 0 -- -- 95
2021-01-10 07:00:00 -2.8 4 Sudoeste 14 Sudoeste 0 -- -- 95
2021-01-10 06:00:00 -2.6 0 Calma 13 Sudoeste 0 -- -- 95
2021-01-10 05:00:00 -2.7 2 Sudoeste 6 Sudoeste 0 -- -- 95
2021-01-10 04:00:00 -2.3 0 Calma 10 Sudoeste 0.2 -- -- 95
2021-01-10 03:00:00 -2.3 0 Calma 10 Sudoeste 0 -- -- 95
2021-01-10 02:00:00 -2.4 2 Sudoeste 8 Sudoeste 0 -- -- 95
2021-01-10 01:00:00 -2.4 4 Sudoeste 9 Sudoeste 0 -- -- 96
2021-01-10 00:00:00 -2.2 0 Calma 7 Sudoeste 0.2 -- -- 95
2021-01-09 23:00:00 -2.1 5 Sudoeste 11 Sudoeste 0 -- -- 95
2021-01-09 22:00:00 -2.2 3 Sudoeste 10 Sudoeste 0 -- -- 96
2021-01-09 21:00:00 -2.2 3 Sudoeste 6 Sudoeste 0.2 -- -- 95
2021-01-09 20:00:00 -2.1 3 Sudoeste 6 Sudoeste 0 -- -- 95
2021-01-09 19:00:00 -2 2 Sudoeste 7 Sudoeste 0.4 -- -- 95
2021-01-09 18:00:00 -1.9 2 Sudoeste 8 Sudoeste 0.4 -- -- 95
2021-01-09 17:00:00 -1.9 0 Calma 6 Sudoeste 1.4 -- -- 94
2021-01-09 16:00:00 -2 3 Sudoeste 10 Sudoeste 0.8 -- -- 93
2021-01-09 15:00:00 -1.8 4 Sudoeste 12 Sudoeste 0.6 -- -- 92
2021-01-09 14:00:00 -1.8 4 Sur 9 Sudoeste 1 -- -- 92
2021-01-09 13:00:00 -1.5 0 Calma 2 Sudoeste 1 -- -- 91
2021-01-09 12:00:00 -2 0 Calma 5 Sur 0.4 -- -- 91
2021-01-09 11:00:00 -2.5 0 Calma 2 Sudeste 0.2 -- -- 91
2021-01-09 10:00:00 -3.1 0 Calma 4 Sudoeste 0.4 -- -- 94
2021-01-09 09:00:00 -3.5 2 Sur 3 Sur 0.6 -- -- 94
2021-01-09 08:00:00 -3.7 0 Calma 2 Sur 0.2 -- -- 94
2021-01-09 07:00:00 -3.8 0 Calma 2 Sur 0 -- -- 93
2021-01-09 06:00:00 -3.8 0 Calma 2 Oeste 0 -- -- 92
2021-01-09 05:00:00 -3.8 0 Calma 2 Sudeste 0 -- -- 92
2021-01-09 04:00:00 -3.6 0 Calma 7 Sudoeste 0 -- -- 91
2021-01-09 03:00:00 -3.8 2 Sudoeste 5 Sudoeste 0 -- -- 90
2021-01-09 02:00:00 -3.7 0 Calma 2 Nordeste 0 -- -- 89
2021-01-09 01:00:00 -3.6 0 Calma 3 Nordeste 0 -- -- 88
2021-01-09 00:00:00 -3.6 0 Calma 5 Nordeste 0 -- -- 87
2021-01-08 23:00:00 -3.4 0 Calma 3 Noroeste 0 -- -- 86
2021-01-08 22:00:00 -3.2 0 Calma 2 Noroeste 0 -- -- 84
2021-01-08 21:00:00 -2.9 0 Calma 2 Sudoeste 0 -- -- 81
2021-01-08 20:00:00 -2.7 0 Calma 3 Noroeste 0 -- -- 78
2021-01-08 19:00:00 -2.1 0 Calma 10 Sudoeste 0 -- -- 73
2021-01-08 18:00:00 -1.2 5 Sudoeste 9 Sudoeste 0 -- -- 77
2021-01-08 17:00:00 0.1 2 Sudoeste 8 Sudoeste 0 -- -- 71
2021-01-08 16:00:00 1.2 3 Sur 10 Sudoeste 0 -- -- 65
2021-01-08 15:00:00 1.4 3 Sudoeste 8 Sudoeste 0 -- -- 62
2021-01-08 14:00:00 1 0 Calma 6 Sudoeste 0 -- -- 60
2021-01-08 13:00:00 -1.8 2 Nordeste 3 Nordeste 0 -- -- 72
2021-01-08 12:00:00 -3.6 0 Calma 3 Este 0 -- -- 78
2021-01-08 11:00:00 -7.7 0 Calma -- -- 0 -- -- 84
2021-01-08 10:00:00 -10.4 0 Calma -- -- 0 -- -- 87
2021-01-08 09:00:00 -13.6 0 Calma -- -- 0 -- -- 89
2021-01-08 08:00:00 -13.8 0 Calma -- -- 0 -- -- 88
2021-01-08 07:00:00 -13.3 0 Calma 0 Calma 0 -- -- 88
2021-01-08 06:00:00 -13 0 Calma 2 Sudoeste 0 -- -- 89
2021-01-08 05:00:00 -12.6 0 Calma 2 Sur 0 -- -- 88
2021-01-08 04:00:00 -11.9 0 Calma 4 Nordeste 0 -- -- 90
2021-01-08 03:00:00 -11.4 0 Calma 3 Sudoeste 0 -- -- 88
2021-01-08 02:00:00 -10.9 0 Calma 3 Oeste 0 -- -- 89
2021-01-08 01:00:00 -10.2 0 Calma 5 Nordeste 0 -- -- 92
2021-01-08 00:00:00 -9.2 0 Calma 2 Sudoeste 0 -- -- 91
2021-01-07 23:00:00 -8.4 0 Calma 2 Nordeste 0 -- -- 91
2021-01-07 22:00:00 -7.4 0 Calma 4 Sur 0 -- -- 88
2021-01-07 21:00:00 -6 0 Calma 3 Oeste 0 -- -- 89
2021-01-07 20:00:00 -5.1 0 Calma 4 Sudoeste 0 -- -- 88
2021-01-07 19:00:00 -3.8 0 Calma 6 Nordeste 0 -- -- 86
2021-01-07 18:00:00 -2.5 4 Sudoeste 8 Sudoeste 0 -- -- 82
2021-01-07 17:00:00 -0.8 0 Calma 4 Sudeste 0 -- -- 73
2021-01-07 16:00:00 0.1 0 Calma 4 Noroeste 0 -- -- 69
2021-01-07 15:00:00 0.5 0 Calma 5 Nordeste 0 -- -- 68
2021-01-07 14:00:00 -1.2 0 Calma 2 Este 0 -- -- 78
2021-01-07 13:00:00 -3.3 0 Calma 3 Nordeste 0 -- -- 82
2021-01-07 12:00:00 -5.6 0 Calma 2 Oeste 0 -- -- 87
2021-01-07 11:00:00 -7.8 0 Calma 3 Nordeste 0 -- -- 89
2021-01-07 10:00:00 -9.8 0 Calma -- -- 0 -- -- 90
2021-01-07 09:00:00 -10.4 0 Calma -- -- 0 -- -- 90
2021-01-07 08:00:00 -10.4 0 Calma 0 Calma 0 -- -- 91
2021-01-07 07:00:00 -10.3 0 Calma 0 Calma 0 -- -- 90
2021-01-07 06:00:00 -9.9 0 Calma 2 Sur 0 -- -- 91
2021-01-07 05:00:00 -9.4 0 Calma 3 Sudoeste 0 -- -- 91
2021-01-07 04:00:00 -9.1 0 Calma 2 Oeste 0 -- -- 91
2021-01-07 03:00:00 -8.5 0 Calma 3 Noroeste 0 -- -- 93
2021-01-07 02:00:00 -8.6 0 Calma 4 Nordeste 0 -- -- 91
2021-01-07 01:00:00 -8.2 0 Calma 3 Oeste 0 -- -- 91
2021-01-07 00:00:00 -7.2 0 Calma 3 Noroeste 0 -- -- 91
2021-01-06 23:00:00 -6.5 0 Calma 4 Sudoeste 0 -- -- 90
2021-01-06 22:00:00 -5.7 0 Calma 4 Sudoeste 0 -- -- 91
2021-01-06 21:00:00 -5 2 Sudoeste 5 Sudoeste 0 -- -- 90
2021-01-06 20:00:00 -4.3 3 Oeste 5 Sudoeste 0 -- -- 88
2021-01-06 19:00:00 -2.9 2 Sudoeste 4 Sudoeste 0 -- -- 87
2021-01-06 18:00:00 -1.3 2 Sudoeste 12 Nordeste 0 -- -- 80
2021-01-06 17:00:00 0.6 2 Oeste 12 Sudoeste 0 -- -- 63
2021-01-06 16:00:00 2.9 5 Sudoeste 11 Sudoeste 0 -- -- 63
2021-01-06 15:00:00 3.9 4 Sudoeste 9 Sudoeste 0 -- -- 58
2021-01-06 14:00:00 3.5 3 Sur 6 Sudoeste 0 -- -- 59
2021-01-06 13:00:00 0.5 0 Calma 5 Nordeste 0 -- -- 70
2021-01-06 12:00:00 -2.6 0 Calma 2 Este 0 -- -- 80
2021-01-06 11:00:00 -6.5 0 Calma -- -- 0 -- -- 93
2021-01-06 10:00:00 -8.9 0 Calma 0 Calma 0 -- -- 91
2021-01-06 09:00:00 -9.5 0 Calma 0 Calma 0 -- -- 92
2021-01-06 08:00:00 -10.3 0 Calma 2 Sur 0 -- -- 90
2021-01-06 07:00:00 -10.4 0 Calma 2 Nordeste 0 -- -- 91
2021-01-06 06:00:00 -10.2 0 Calma 3 Nordeste 0 -- -- 90
2021-01-06 05:00:00 -9.6 0 Calma 6 Norte 0 -- -- 92
2021-01-06 04:00:00 -10.1 0 Calma 3 Nordeste 0 -- -- 92
2021-01-06 03:00:00 -9.5 0 Calma 2 Nordeste 0 -- -- 91
2021-01-06 02:00:00 -8.8 0 Calma 2 Sudeste 0 -- -- 92
2021-01-06 01:00:00 -8.3 0 Calma 3 Nordeste 0 -- -- 93
2021-01-06 00:00:00 -7.4 0 Calma 3 Nordeste 0 -- -- 92
2021-01-05 23:00:00 -6.8 0 Calma 5 Sudoeste 0 -- -- 92
2021-01-05 22:00:00 -5.9 2 Sudoeste 9 Sudoeste 0 -- -- 92
2021-01-05 21:00:00 -4.8 4 Sudoeste 9 Sur 0 -- -- 89
2021-01-05 20:00:00 -3.3 3 Sur 23 Oeste 0 -- -- 83
2021-01-05 19:00:00 -2.3 12 Noroeste 22 Noroeste 0 -- -- 79
2021-01-05 18:00:00 -1.5 9 Noroeste 26 Oeste 0 -- -- 76
2021-01-05 17:00:00 -0.7 18 Noroeste 32 Oeste 0 -- -- 74
2021-01-05 16:00:00 1.2 7 Noroeste 35 Noroeste 0 -- -- 67
2021-01-05 15:00:00 1 22 Oeste 37 Oeste 0 -- -- 71
2021-01-05 14:00:00 1.7 18 Noroeste 32 Oeste 0 -- -- 68
2021-01-05 13:00:00 2 16 Oeste 29 Noroeste 0 -- -- 68
2021-01-05 12:00:00 1 4 Oeste 11 Noroeste 0 -- -- 77
2021-01-05 11:00:00 -0.4 0 Calma 5 Nordeste 0 -- -- 85
2021-01-05 10:00:00 -3.1 0 Calma 4 Norte 0 -- -- 94
2021-01-05 09:00:00 -4.7 0 Calma 4 Nordeste 0 -- -- 95
2021-01-05 08:00:00 -5.2 0 Calma 3 Oeste 0 -- -- 94
2021-01-05 07:00:00 -5.2 0 Calma 5 Norte 0 -- -- 94
2021-01-05 06:00:00 -5.1 0 Calma 5 Oeste 0 -- -- 93
2021-01-05 05:00:00 -5.2 0 Calma 5 Sur 0 -- -- 94
2021-01-05 04:00:00 -5.1 0 Calma 2 Sur 0 -- -- 93
2021-01-05 03:00:00 -4.8 0 Calma 4 Noroeste 0 -- -- 93
2021-01-05 02:00:00 -5 2 Norte 8 Oeste 0 -- -- 92
2021-01-05 01:00:00 -4.2 0 Calma 5 Nordeste 0 -- -- 96
2021-01-05 00:00:00 -3.3 3 Nordeste 6 Nordeste 0.2 -- -- 95
2021-01-04 23:00:00 -2.1 0 Calma 7 Noroeste 0.2 -- -- 95
2021-01-04 22:00:00 -2 0 Calma 3 Nordeste 0 -- -- 95
2021-01-04 21:00:00 -1.8 0 Calma 2 Este 0.6 -- -- 95
2021-01-04 20:00:00 -1.9 0 Calma 2 Sudeste 0 -- -- 94
2021-01-04 19:00:00 -1.6 0 Calma 3 Oeste 0 -- -- 93
2021-01-04 18:00:00 -1.2 0 Calma 5 Sur 0.4 -- -- 92
2021-01-04 17:00:00 -0.6 3 Sudoeste 10 Sudoeste 0.4 -- -- 88
2021-01-04 16:00:00 0.2 4 Sur 13 Sudoeste 0 -- -- 85
2021-01-04 15:00:00 0.4 4 Sudoeste 9 Sudoeste 0.2 -- -- 83
2021-01-04 14:00:00 -0.3 3 Sur 9 Sur 0.4 -- -- 86
2021-01-04 13:00:00 -0.3 0 Calma -- -- 0.4 -- -- 88
2021-01-04 12:00:00 -0.5 0 Calma 7 Sur 1.2 -- -- 91
2021-01-04 11:00:00 -1 0 Calma 6 Oeste 1 -- -- 94
2021-01-04 10:00:00 -1.3 3 Sudoeste 6 Sudoeste 0.8 -- -- 94
2021-01-04 09:00:00 -1.7 0 Calma 4 Sudoeste 0.2 -- -- 94
2021-01-04 08:00:00 -1.7 2 Oeste 7 Oeste 0 -- -- 94
2021-01-04 07:00:00 -1.9 2 Oeste 4 Oeste 0 -- -- 94
2021-01-04 06:00:00 -1.9 0 Calma 2 Oeste 0 -- -- 94
2021-01-04 05:00:00 -1.9 0 Calma 3 Sudoeste 0 -- -- 94
2021-01-04 04:00:00 -1.7 0 Calma 4 Sudoeste 0 -- -- 93
2021-01-04 03:00:00 -1.8 0 Calma 3 Sudoeste 0 -- -- 93
2021-01-04 02:00:00 -1.9 3 Nordeste 4 Nordeste 0 -- -- 92
2021-01-04 01:00:00 -1.7 0 Calma 3 Norte 0 -- -- 92
2021-01-04 00:00:00 -0.8 0 Calma 3 Oeste 0 -- -- 91
2021-01-03 23:00:00 -0.4 0 Calma 7 Sudoeste 0 -- -- 90
2021-01-03 22:00:00 -0.3 0 Calma 7 Sudoeste 0 -- -- 92
2021-01-03 21:00:00 -0.6 0 Calma 5 Sur 0 -- -- 93
2021-01-03 20:00:00 0.1 0 Calma 3 Sudoeste 0.8 -- -- 92
2021-01-03 19:00:00 0.6 0 Calma 10 Oeste 0 -- -- 88
2021-01-03 18:00:00 1.1 0 Calma 14 Oeste 0 -- -- 81
2021-01-03 17:00:00 1.9 8 Oeste 17 Oeste 0 -- -- 72
2021-01-03 16:00:00 2.4 12 Oeste 27 Noroeste 0 -- -- 67
2021-01-03 15:00:00 4.1 8 Noroeste 25 Noroeste 0 -- -- 55
2021-01-03 14:00:00 4.1 14 Noroeste 29 Noroeste 0 -- -- 55
2021-01-03 13:00:00 5.4 3 Este 15 Noroeste 0 -- -- 42
2021-01-03 12:00:00 3.9 9 Norte 25 Noroeste 0 -- -- 49
2021-01-03 11:00:00 1.8 16 Noroeste 28 Norte 0 -- -- 61
2021-01-03 10:00:00 2.1 7 Norte 35 Nordeste 0 -- -- 53
2021-01-03 09:00:00 0.4 14 Norte 37 Norte 0 -- -- 61
2021-01-03 08:00:00 0.2 15 Norte 34 Nordeste 0 -- -- 58
2021-01-03 07:00:00 -0.6 15 Norte 42 Norte 0 -- -- 63
2021-01-03 06:00:00 -0.7 18 Norte 55 Nordeste 0 -- -- 62
2021-01-03 05:00:00 -0.7 24 Norte 51 Nordeste 0 -- -- 61
2021-01-03 04:00:00 -0.8 17 Norte 53 Nordeste 0 -- -- 55
2021-01-03 03:00:00 -0.7 23 Norte 65 Noroeste 0 -- -- 49
2021-01-03 02:00:00 -0.4 19 Norte 44 Noroeste 0 -- -- 43
2021-01-03 01:00:00 -0.6 18 Norte 64 Noroeste 0 -- -- 47
2021-01-03 00:00:00 -1.4 24 Norte 59 Noroeste 0 -- -- 53
2021-01-02 23:00:00 -2.1 24 Norte 56 Noroeste 0 -- -- 58
2021-01-02 22:00:00 -1.9 21 Norte 49 Noroeste 0 -- -- 53
2021-01-02 21:00:00 -1.8 23 Norte 48 Nordeste 0 -- -- 56
2021-01-02 20:00:00 -1.7 18 Norte 54 Norte 0 -- -- 56
2021-01-02 19:00:00 -1.7 23 Norte 52 Norte 0 -- -- 52
2021-01-02 18:00:00 -1.3 22 Norte 54 Nordeste 0 -- -- 49
2021-01-02 17:00:00 -0.9 20 Norte 59 Norte 0 -- -- 50
2021-01-02 16:00:00 0.1 23 Norte 53 Nordeste 0 -- -- 44
2021-01-02 15:00:00 0.3 17 Norte 52 Norte 0 -- -- 43
2021-01-02 14:00:00 -0.2 19 Norte 61 Nordeste 0 -- -- 47